FENGYUN 1C DEB *, 49389

Orbit data source: Space-Track

FENGYUN 1C DEB *, 49389 is space debris in SSO originally from a launch on Mon, 10 May 1999 UTC launched from the Taiyaun Space Center, China (TSC). Fengyun 1C debris stems from the Chinese weather satellite Fengyun-1C, which was intentionally destroyed by a Chinese anti-satellite missile in 2007. This event dramatically increased the amount of space debris, with thousands of trackable fragments posing hazards to satellites and human spaceflight. The Fengyun 1C debris cloud has become a focal point in discussions about space sustainability and the need for international regulations to prevent the creation of new debris.

Loading next visibility...
Identifier
49389, 1999-025FCJ
Orbit
SSO
Country
Flag of CNCN / PRC
Related business
Manufacturer
Unknown
Mission
Spacecraft
Bus & Motor
Unknown
Mass
Unknown
Launch date (UTC)
1999-05-10 (27 years ago)
Launch vehicle
Unknown
Launch site
Taiyaun Space Center, China (TSC)
Object type
Payload
Rocket body
Debris
Shape & HBR
Unknown shape, 0.1 m
Radar Cross Section
Small (<0.1 m²)

Expand to show TLE details & history
Last TLE update: 1 month ago

TLE from 1 month ago
0 FENGYUN 1C DEB *
1 49389U 99025FCJ 26070.24001725  .00003391  00000-0  21372-2 0  9997
2 49389  98.7028 261.6924 0135810 303.6751  55.1524 14.00437005240879
Epoch: 2026-03-11T05:45Z
TLE epoch observation values (Epoch: 2026-03-11T05:45:37.490Z)
Latitude
-0.00005°
Longitude
6.3791°
Altitude
839.655 km
Speed
7.461 km/s
True Right ascension
17h 26m 46s
True Declination
0° 00' 00"
Sunlit
Object was in daylight at epoch
Visualization orbit readout
Latitude
Unknown
Longitude
Unknown
Altitude
Unknown
Speed
Unknown
Apparent Right ascension
Unknown
Apparent Declination
Unknown
Sunlit
N/A
Visualization observer readout
Local Sidereal Time
19:11:59
Azimuth
Unknown
Elevation
Unknown
Doppler factor
Unknown
Orbital elements
Apogee altitude
988.167 km
Perigee altitude
790.765 km
Semi-major axis
7,267.603 km
Eccentricity
0.01358
Inclination
98.7028°
RAAN
261.6924°
Arg. of periapsis
303.6751°
True anomaly
56.44199°
Mean anomaly
55.1524°
Eccentric anomaly
55.79595°
Mean motion
3.50313 °/min
Orbital period
102.77 mins
BSTAR
0.0021372
Loading maneuver chart data...
Computing Atmospheric mass density...

Documentation

Showing up to 5 results
|